CW3359 Weather Reports


Display with metric or nautical units.
time (UTC)temp
F
wind
direction
speed
MPH
gust
MPH
rain 1hr
in
rain 24hr
in
rain mn
in
humidity
%
barometer
mb
20260507083344 50 302 0.0 5.0 0.00 0.00 0.00 80 1013.2
20260507082344 50 302 2.0 4.0 0.00 0.00 0.00 80 1013.2
20260507081344 50 302 0.0 5.0 0.00 0.00 0.00 80 1013.0
20260507080343 50 302 0.0 4.0 0.00 0.00 0.00 80 1013.0
20260507075343 49 302 3.0 5.0 0.00 0.00 0.00 80 1013.0
20260507074343 49 302 0.0 3.0 0.00 0.00 0.00 81 1012.8
20260507073343 49 302 0.0 4.0 0.00 0.00 0.00 81 1012.6
20260507072338 49 302 0.0 5.0 0.00 0.00 0.00 81 1012.6
20260507072254 49 302 4.0 7.0 0.00 0.00 0.00 82 1012.4
20260507070338 49 302 0.0 5.0 0.00 0.00 0.00 83 1012.3
20260507065333 49 302 1.0 4.0 0.00 0.00 0.00 83 1012.3
20260507064332 49 302 3.0 7.0 0.00 0.00 0.00 83 1012.2
20260507063332 49 303 0.0 4.0 0.00 0.00 0.00 84 1012.2
20260507062332 49 303 0.0 4.0 0.00 0.00 0.00 85 1012.0
20260507062258 48 302 1.0 4.0 0.00 0.00 0.00 85 1011.9
20260507060817 48 302 0.0 0.0 0.00 0.00 0.00 87 1011.8
20260507055330 48 302 0.0 0.0 0.00 0.00 0.00 88 1011.7
20260507054806 48 302 0.0 0.0 0.00 0.00 0.00 88 1011.6
20260507053335 47 302 0.0 0.0 0.00 0.00 0.00 88 1011.5
20260507052334 47 302 0.0 0.0 0.00 0.00 0.00 88 1011.3
20260507051817 47 302 0.0 0.0 0.00 0.00 0.00 87 1011.3
20260507050812 48 302 0.0 0.0 0.00 0.00 0.00 89 1011.2
20260507045331 48 303 0.0 0.0 0.00 0.00 0.00 85 1011.0
20260507044331 49 302 0.0 0.0 0.00 0.00 0.00 84 1011.0
20260507043331 49 303 0.0 0.0 0.00 0.00 0.00 83 1010.9
20260507042331 49 303 0.0 0.0 0.00 0.00 0.00 83 1010.7
20260507041331 49 303 0.0 0.0 0.00 0.00 0.00 83 1010.7
20260507040332 49 303 0.0 0.0 0.00 0.00 0.00 83 1010.5
20260507035331 49 302 0.0 0.0 0.00 0.00 0.00 83 1010.4
20260507034332 49 302 0.0 0.0 0.00 0.00 0.00 84 1010.4
20260507033331 49 302 0.0 0.0 0.00 0.00 0.00 84 1010.3
20260507032819 49 302 0.0 0.0 0.00 0.00 0.00 83 1010.3
20260507031330 49 302 0.0 0.0 0.00 0.00 0.00 83 1010.2
20260507030334 49 302 0.0 0.0 0.00 0.00 0.00 83 1010.1
20260507025332 49 302 0.0 0.0 0.00 0.00 0.00 83 1010.1
20260507024330 49 302 0.0 0.0 0.00 0.00 0.00 83 1010.1
20260507023813 49 302 0.0 0.0 0.00 0.00 0.00 83 1010.0
20260507022325 49 302 0.0 2.0 0.00 0.00 0.00 83 1010.0
20260507021808 49 302 1.0 4.0 0.00 0.00 0.00 83 1009.8
20260507020324 49 303 1.0 5.0 0.00 0.00 0.00 83 1009.7
20260507015322 49 303 0.0 5.0 0.00 0.00 0.00 83 1009.5
20260507014322 49 303 1.0 7.0 0.00 0.00 0.00 83 1009.5
20260507013320 49 303 2.0 6.0 0.00 0.00 0.00 83 1009.6
20260507012317 49 303 0.0 0.0 0.00 0.00 0.00 83 1009.6
20260507011318 49 303 0.0 0.0 0.00 0.00 0.00 83 1009.5
20260507010316 49 303 0.0 5.0 0.00 0.00 0.00 83 1009.4
20260507005316 49 303 0.0 5.0 0.00 0.00 0.00 84 1009.3
20260507004804 49 303 0.0 0.0 0.00 0.00 0.00 84 1009.2
20260507003311 49 303 1.0 5.0 0.00 0.00 0.00 84 1009.2
20260507002312 49 303 0.0 0.0 0.00 0.00 0.00 84 1009.2
20260507001310 49 303 0.0 0.0 0.00 0.00 0.00 84 1009.3
20260507000308 49 303 0.0 0.0 0.00 0.00 0.00 84 1009.2
20260506235309 49 303 0.0 3.0 0.00 0.00 0.00 84 1009.2
20260506234742 49 303 0.0 5.0 0.00 0.00 0.00 84 1009.2
20260506233304 49 303 0.0 4.0 0.00 0.00 0.00 84 1009.1
20260506232306 49 303 0.0 3.0 0.00 0.00 0.00 85 1009.1
20260506231302 49 303 0.0 0.0 0.00 0.00 0.00 84 1009.0
20260506230305 49 303 0.0 5.0 0.00 0.00 0.00 84 1009.1
20260506225746 49 303 1.0 3.0 0.00 0.00 0.00 84 1009.0
20260506224302 49 303 0.0 6.0 0.00 0.00 0.00 83 1009.0
20260506224210 49 314 1.0 6.0 0.00 0.00 0.00 84 1009.0
20260506222305 49 314 0.0 7.0 0.00 0.00 0.00 84 1008.9
20260506221302 49 316 3.0 11.0 0.00 0.00 0.00 84 1008.7
20260506220302 49 312 2.0 5.0 0.00 0.00 0.00 84 1008.7
20260506215746 49 312 0.0 0.0 0.00 0.00 0.00 84 1008.6
20260506214302 49 312 0.0 0.0 0.00 0.00 0.00 84 1008.5
20260506213303 49 312 0.0 1.0 0.00 0.00 0.00 84 1008.6
20260506212302 50 312 0.0 0.0 0.00 0.00 0.00 84 1008.5
20260506211302 50 312 0.0 0.0 0.00 0.00 0.00 84 1008.4
20260506210302 50 312 0.0 0.0 0.00 0.00 0.00 84 1008.4
20260506205740 50 312 0.0 6.0 0.00 0.00 0.00 84 1008.3
20260506204302 50 313 0.0 7.0 0.00 0.00 0.00 84 1008.3
20260506203301 50 320 0.0 5.0 0.00 0.00 0.00 85 1008.2
20260506202305 50 324 2.0 7.0 0.00 0.00 0.00 85 1008.1
20260506201303 50 326 0.0 6.0 0.00 0.00 0.00 85 1008.1
20260506200302 51 327 1.0 6.0 0.00 0.00 0.00 85 1007.9
20260506195305 51 303 0.0 0.0 0.00 0.00 0.00 85 1007.9
20260506194302 52 303 0.0 0.0 0.00 0.00 0.00 84 1007.6
20260506193738 52 303 0.0 0.0 0.00 0.00 0.00 84 1007.6
20260506192305 52 303 0.0 5.0 0.00 0.00 0.00 83 1007.4
20260506191301 52 302 0.0 0.0 0.00 0.00 0.00 83 1007.2
20260506190302 52 302 0.0 0.0 0.00 0.00 0.00 83 1007.0
20260506185306 52 302 0.0 0.0 0.00 0.00 0.00 83 1006.9
20260506184304 52 302 0.0 0.0 0.00 0.00 0.00 83 1006.7
20260506183303 52 302 0.0 0.0 0.00 0.00 0.00 83 1006.7
20260506182306 53 302 0.0 4.0 0.00 0.00 0.00 84 1006.5
20260506181302 53 302 0.0 0.0 0.00 0.00 0.00 84 1006.3
20260506180301 53 302 0.0 0.0 0.00 0.00 0.00 84 1006.2
20260506175306 53 302 0.0 6.0 0.00 0.00 0.00 84 1006.2
20260506174304 53 298 2.0 7.0 0.00 0.00 0.00 84 1006.2
20260506173303 53 298 0.0 5.0 0.00 0.00 0.00 84 1006.1
20260506172750 53 298 2.0 6.0 0.00 0.00 0.00 84 1006.2
20260506171303 53 298 0.0 6.0 0.00 0.00 0.00 84 1006.0
20260506170740 53 298 0.0 6.0 0.00 0.00 0.00 85 1005.9
20260506165755 53 298 1.0 5.0 0.00 0.00 0.00 85 1005.9
20260506164301 53 298 0.0 3.0 0.00 0.00 0.00 85 1005.9
20260506163259 54 299 0.0 7.0 0.00 0.00 0.00 85 1005.9
20260506162254 54 307 3.0 9.0 0.00 0.00 0.00 85 1005.8
20260506161254 54 275 4.0 10.0 0.00 0.00 0.00 84 1005.7
20260506160729 54 314 0.0 5.0 0.00 0.00 0.00 86 1005.7
20260506155250 54 314 2.0 11.0 0.00 0.00 0.00 86 1005.6
20260506154250 55 303 0.0 6.0 0.00 0.00 0.00 89 1005.6
20260506153248 55 317 0.0 5.0 0.01 0.00 0.00 88 1005.5
20260506152732 55 320 0.0 6.0 0.01 0.00 0.00 87 1005.5
20260506151243 56 321 0.0 9.0 0.02 0.00 0.00 85 1005.4
20260506150244 56 305 4.0 7.0 0.03 0.00 0.00 85 1005.2
20260506145242 56 303 0.0 6.0 0.03 0.00 0.00 87 1005.0
20260506144242 56 303 1.0 7.0 0.03 0.00 0.00 86 1004.9
20260506143240 57 310 1.0 12.0 0.02 0.00 0.00 88 1004.7
20260506142237 56 288 5.0 14.0 0.02 0.00 0.00 88 1004.6
20260506141239 57 292 2.0 12.0 0.02 0.00 0.00 87 1004.4
20260506141155 58 292 2.0 9.0 0.00 0.00 0.00 82 1004.3
20260506135234 58 233 5.0 9.0 0.00 0.00 0.00 79 1004.3
20260506134720 58 193 4.0 9.0 0.01 0.00 0.00 80 1004.4
20260506133232 58 269 0.0 5.0 0.01 0.00 0.00 84 1004.5
20260506132237 57 269 1.0 10.0 0.02 0.00 0.00 83 1004.6
20260506131703 57 203 5.0 10.0 0.02 0.00 0.00 82 1004.6
20260506130231 57 258 0.0 10.0 0.02 0.00 0.00 83 1004.5
20260506125232 57 182 0.0 13.0 0.02 0.00 0.00 83 1004.4
20260506124711 58 152 3.0 10.0 0.01 0.00 0.00 81 1004.4
20260506123231 58 200 0.0 6.0 0.01 0.00 0.00 79 1004.3
20260506122231 59 154 0.0 10.0 0.00 0.00 0.00 76 1004.2
20260506121712 59 234 2.0 10.0 0.00 0.00 0.00 75 1004.2
20260506120232 59 197 2.0 7.0 0.00 0.00 0.00 77 1004.2
20260506115231 58 219 4.0 9.0 0.00 0.00 0.00 79 1004.3
20260506114231 59 257 3.0 9.0 0.00 0.00 0.00 79 1004.3
20260506113231 58 200 6.0 12.0 0.00 0.00 0.00 78 1004.3
20260506112231 58 243 3.0 11.0 0.00 0.00 0.00 79 1004.4
20260506111231 58 172 4.0 10.0 0.00 0.00 0.00 80 1004.3
20260506110231 57 141 0.0 12.0 0.00 0.00 0.00 84 1004.4
20260506105231 57 233 6.0 12.0 0.00 0.00 0.00 83 1004.6
20260506104231 58 158 0.0 7.0 0.00 0.00 0.00 79 1004.6
20260506103231 58 235 2.0 7.0 0.00 0.00 0.00 78 1004.5
20260506102232 59 223 0.0 9.0 0.00 0.00 0.00 76 1004.5
20260506101231 59 276 4.0 10.0 0.00 0.00 0.00 75 1004.5
20260506100231 58 195 4.0 9.0 0.00 0.00 0.00 79 1004.6
20260506095230 57 248 2.0 9.0 0.00 0.00 0.00 80 1004.5
20260506094722 57 257 2.0 7.0 0.00 0.00 0.00 80 1004.5
20260506093232 56 202 3.0 10.0 0.00 0.00 0.00 82 1004.6
20260506092231 56 209 3.0 6.0 0.00 0.00 0.00 83 1004.5
20260506091705 55 204 0.0 4.0 0.00 0.00 0.00 84 1004.6
20260506091150 55 206 4.0 7.0 0.00 0.00 0.00 84 1004.5
20260506085232 55 238 4.0 6.0 0.00 0.00 0.00 82 1004.5
20260506084630 55 250 2.0 10.0 0.00 0.00 0.00 82 1004.5
20260506084359 55 264 4.0 9.0 0.00 0.00 0.00 81 1004.5